ARE4218 SKBO-SKCC

Flight info

Callsign ARE4218
Flight time 0h 43m
Altitude 29000
Route OSUSU4R OSUSU DCT BUV DCT ESNUT ESNUT2A
Aircraft A320/M-SDE3FGHIRWY/LB1

Departure

Time 2026-04-26 05:32
Airport El Dorado International Airport (SKBO)

Arrival

Time 2026-04-26 06:15
Airport Camilo Daza International Airport (SKCC)
Time Latitude Longitude Altitude Speed Heading
2026-04-26 05:07 4.69941 -74.14277 8371 ft 0 kts 37°
2026-04-26 05:11 4.69933 -74.14283 8371 ft 4 kts 37°
2026-04-26 05:11 4.69911 -74.14300 8371 ft 4 kts 37°
2026-04-26 05:11 4.69890 -74.14316 8372 ft 4 kts 37°
2026-04-26 05:11 4.69868 -74.14333 8372 ft 4 kts 37°
2026-04-26 05:12 4.69884 -74.14323 8372 ft 4 kts 27°
2026-04-26 05:12 4.69906 -74.14328 8371 ft 4 kts 324°
2026-04-26 05:12 4.69921 -74.14348 8371 ft 4 kts 307°
2026-04-26 05:12 4.69934 -74.14366 8371 ft 0 kts 307°
2026-04-26 05:22 4.69936 -74.14368 8371 ft 1 kts 307°
2026-04-26 05:22 4.69941 -74.14375 8372 ft 2 kts 307°
2026-04-26 05:22 4.69945 -74.14380 8371 ft 1 kts 307°
2026-04-26 05:23 4.69946 -74.14381 8371 ft 0 kts 307°
2026-04-26 05:24 4.69946 -74.14382 8371 ft 0 kts 307°
2026-04-26 05:24 4.69950 -74.14387 8371 ft 1 kts 306°
2026-04-26 05:25 4.69958 -74.14398 8371 ft 2 kts 306°
2026-04-26 05:25 4.69970 -74.14415 8372 ft 4 kts 306°
2026-04-26 05:25 4.69987 -74.14438 8372 ft 5 kts 306°
2026-04-26 05:25 4.70009 -74.14467 8371 ft 6 kts 306°
2026-04-26 05:26 4.70014 -74.14475 8371 ft 1 kts 306°
2026-04-26 05:26 4.70020 -74.14482 8371 ft 2 kts 306°
2026-04-26 05:26 4.70031 -74.14498 8371 ft 5 kts 306°
2026-04-26 05:26 4.70066 -74.14547 8371 ft 10 kts 289°
2026-04-26 05:27 4.70026 -74.14614 8372 ft 13 kts 217°
2026-04-26 05:27 4.69943 -74.14675 8373 ft 16 kts 217°
2026-04-26 05:27 4.69854 -74.14743 8370 ft 16 kts 217°
2026-04-26 05:27 4.69764 -74.14808 8371 ft 15 kts 206°
2026-04-26 05:28 4.69691 -74.14756 8371 ft 14 kts 128°
2026-04-26 05:28 4.69632 -74.14678 8373 ft 15 kts 126°
2026-04-26 05:28 4.69568 -74.14594 8372 ft 16 kts 127°
2026-04-26 05:28 4.69501 -74.14504 8373 ft 16 kts 127°
2026-04-26 05:29 4.69431 -74.14412 8373 ft 17 kts 127°
2026-04-26 05:29 4.69357 -74.14315 8373 ft 18 kts 128°
2026-04-26 05:29 4.69279 -74.14213 8373 ft 19 kts 127°
2026-04-26 05:29 4.69202 -74.14113 8374 ft 14 kts 128°
2026-04-26 05:30 4.69143 -74.14037 8372 ft 11 kts 128°
2026-04-26 05:30 4.69089 -74.14032 8372 ft 9 kts 219°
2026-04-26 05:30 4.69037 -74.14076 8374 ft 10 kts 220°
2026-04-26 05:30 4.69035 -74.14113 8374 ft 5 kts 268°
2026-04-26 05:31 4.69032 -74.14154 8374 ft 6 kts 265°
2026-04-26 05:31 4.69028 -74.14201 8374 ft 7 kts 265°
2026-04-26 05:31 4.69039 -74.14253 8372 ft 8 kts 301°
2026-04-26 05:31 4.69093 -74.14334 8374 ft 36 kts 307°
2026-04-26 05:32 4.69401 -74.14732 8371 ft 105 kts 307°
2026-04-26 05:32 4.69953 -74.15464 8373 ft 157 kts 307°
2026-04-26 05:32 4.70702 -74.16450 8517 ft 188 kts 307°
2026-04-26 05:32 4.71483 -74.17450 9293 ft 178 kts 308°
2026-04-26 05:33 4.72247 -74.18397 9966 ft 177 kts 306°
2026-04-26 05:33 4.73051 -74.19414 10176 ft 193 kts 315°
2026-04-26 05:33 4.74221 -74.20071 10296 ft 212 kts 349°
2026-04-26 05:33 4.75721 -74.19921 10446 ft 232 kts 25°
2026-04-26 05:34 4.77235 -74.19068 10612 ft 253 kts 31°
2026-04-26 05:34 4.78789 -74.18122 10847 ft 272 kts 31°
2026-04-26 05:34 4.80425 -74.17117 11373 ft 280 kts 31°
2026-04-26 05:34 4.82074 -74.16106 12022 ft 281 kts 31°
2026-04-26 05:35 4.83761 -74.15078 12709 ft 283 kts 31°
2026-04-26 05:35 4.85439 -74.14060 13394 ft 286 kts 31°
2026-04-26 05:35 4.87101 -74.13047 14045 ft 289 kts 33°
2026-04-26 05:35 4.88656 -74.11722 14429 ft 304 kts 43°
2026-04-26 05:36 4.90181 -74.10238 14562 ft 324 kts 44°
2026-04-26 05:36 4.91842 -74.08590 14690 ft 345 kts 44°
2026-04-26 05:36 4.93551 -74.06881 15003 ft 357 kts 45°
2026-04-26 05:36 4.95249 -74.05181 15509 ft 362 kts 44°
2026-04-26 05:37 4.97104 -74.03329 16100 ft 365 kts 44°
2026-04-26 05:37 4.98915 -74.01530 16658 ft 369 kts 44°
2026-04-26 05:37 5.00856 -73.99818 17207 ft 372 kts 34°
2026-04-26 05:37 5.03071 -73.98541 17747 ft 374 kts 22°
2026-04-26 05:38 5.05545 -73.97728 18287 ft 376 kts 13°
2026-04-26 05:38 5.08083 -73.97105 18832 ft 378 kts 13°
2026-04-26 05:38 5.10656 -73.96469 19351 ft 382 kts 13°
2026-04-26 05:38 5.13247 -73.95828 19855 ft 385 kts 13°
2026-04-26 05:39 5.15850 -73.95181 20362 ft 388 kts 13°
2026-04-26 05:39 5.18488 -73.94523 20874 ft 391 kts 13°
2026-04-26 05:39 5.21141 -73.93862 21362 ft 394 kts 14°
2026-04-26 05:39 5.23772 -73.93205 21826 ft 397 kts 14°
2026-04-26 05:40 5.26463 -73.92533 22307 ft 400 kts 14°
2026-04-26 05:40 5.29170 -73.91859 22774 ft 403 kts 14°
2026-04-26 05:40 5.31906 -73.91179 23220 ft 406 kts 14°
2026-04-26 05:40 5.34649 -73.90497 23650 ft 409 kts 14°
2026-04-26 05:41 5.37416 -73.89807 24060 ft 411 kts 14°
2026-04-26 05:41 5.40214 -73.89106 24461 ft 414 kts 14°
2026-04-26 05:41 5.42970 -73.88416 24833 ft 417 kts 14°
2026-04-26 05:41 5.45798 -73.87709 25205 ft 420 kts 14°
2026-04-26 05:42 5.48647 -73.86998 25591 ft 422 kts 14°
2026-04-26 05:42 5.51506 -73.86276 25955 ft 425 kts 17°
2026-04-26 05:42 5.54278 -73.85233 26294 ft 427 kts 26°
2026-04-26 05:42 5.56880 -73.83802 26639 ft 429 kts 30°
2026-04-26 05:43 5.59476 -73.82327 26971 ft 431 kts 30°
2026-04-26 05:43 5.62070 -73.80858 27283 ft 433 kts 30°
2026-04-26 05:43 5.64741 -73.79348 27605 ft 436 kts 30°
2026-04-26 05:43 5.67351 -73.77873 27907 ft 438 kts 30°
2026-04-26 05:44 5.70016 -73.76368 28212 ft 440 kts 30°
2026-04-26 05:44 5.72693 -73.74854 28499 ft 443 kts 30°
2026-04-26 05:44 5.75368 -73.73338 28815 ft 445 kts 30°
2026-04-26 05:44 5.78074 -73.71804 29084 ft 447 kts 31°
2026-04-26 05:45 5.83386 -73.68795 29129 ft 428 kts 30°
2026-04-26 05:45 5.88532 -73.65881 29118 ft 424 kts 31°
2026-04-26 05:46 5.93448 -73.63097 29103 ft 423 kts 31°
2026-04-26 05:46 5.98656 -73.60145 29090 ft 423 kts 31°
2026-04-26 05:47 6.03791 -73.57230 29079 ft 423 kts 31°
2026-04-26 05:47 6.08910 -73.54328 29074 ft 423 kts 31°
2026-04-26 05:48 6.14026 -73.51425 29074 ft 423 kts 31°
2026-04-26 05:48 6.19102 -73.48554 29067 ft 423 kts 30°
2026-04-26 05:49 6.26804 -73.44185 29053 ft 423 kts 30°
2026-04-26 05:50 6.31917 -73.41277 29046 ft 423 kts 30°
2026-04-26 05:50 6.37031 -73.38381 29035 ft 423 kts 30°
2026-04-26 05:51 6.42148 -73.35482 29033 ft 423 kts 30°
2026-04-26 05:51 6.47277 -73.32572 29022 ft 423 kts 30°
2026-04-26 05:52 6.52408 -73.29654 29018 ft 423 kts 30°
2026-04-26 05:52 6.57508 -73.26749 29011 ft 423 kts 31°
2026-04-26 05:53 6.62628 -73.23840 29004 ft 423 kts 30°
2026-04-26 05:53 6.67748 -73.20932 29002 ft 423 kts 30°
2026-04-26 05:54 6.72880 -73.18018 29000 ft 423 kts 30°
2026-04-26 05:54 6.78015 -73.15104 28994 ft 423 kts 30°
2026-04-26 05:55 6.83100 -73.12207 28995 ft 423 kts 30°
2026-04-26 05:55 6.88230 -73.09283 28964 ft 426 kts 30°
2026-04-26 05:55 6.90787 -73.07840 28413 ft 427 kts 30°
2026-04-26 05:56 6.93378 -73.06413 27838 ft 426 kts 29°
2026-04-26 05:56 6.95894 -73.05046 27428 ft 421 kts 29°
2026-04-26 05:56 6.98482 -73.03648 26995 ft 417 kts 28°
2026-04-26 05:56 7.01041 -73.02272 26543 ft 414 kts 28°
2026-04-26 05:57 7.03426 -73.00978 26134 ft 411 kts 29°
2026-04-26 05:57 7.06006 -72.99569 25664 ft 410 kts 29°
2026-04-26 05:57 7.08469 -72.98211 25211 ft 408 kts 29°
2026-04-26 05:57 7.10979 -72.96828 24765 ft 406 kts 28°
2026-04-26 05:58 7.13432 -72.95481 24287 ft 406 kts 28°
2026-04-26 05:58 7.15940 -72.94108 23919 ft 403 kts 28°
2026-04-26 05:58 7.18401 -72.92758 23425 ft 402 kts 28°
2026-04-26 05:58 7.20831 -72.91424 23120 ft 397 kts 28°
2026-04-26 05:59 7.23149 -72.90150 22662 ft 396 kts 28°
2026-04-26 05:59 7.25563 -72.88826 22230 ft 393 kts 28°
2026-04-26 05:59 7.27939 -72.87524 21807 ft 390 kts 28°
2026-04-26 05:59 7.30326 -72.86217 21371 ft 387 kts 28°
2026-04-26 06:00 7.32660 -72.84939 20940 ft 384 kts 28°
2026-04-26 06:00 7.35014 -72.83648 20492 ft 381 kts 28°
2026-04-26 06:00 7.37345 -72.82369 20038 ft 378 kts 28°
2026-04-26 06:00 7.39688 -72.81084 19579 ft 375 kts 28°
2026-04-26 06:01 7.41965 -72.79832 19133 ft 372 kts 28°
2026-04-26 06:01 7.44235 -72.78585 18676 ft 369 kts 28°
2026-04-26 06:01 7.46443 -72.77372 18249 ft 366 kts 28°
2026-04-26 06:01 7.48666 -72.76151 17809 ft 363 kts 28°
2026-04-26 06:02 7.50879 -72.74936 17356 ft 360 kts 28°
2026-04-26 06:02 7.53070 -72.73729 16907 ft 358 kts 28°
2026-04-26 06:02 7.55237 -72.72527 16460 ft 355 kts 29°
2026-04-26 06:02 7.57391 -72.71331 16035 ft 352 kts 29°
2026-04-26 06:03 7.59533 -72.70141 15602 ft 349 kts 29°
2026-04-26 06:03 7.61654 -72.68960 15161 ft 347 kts 29°
2026-04-26 06:03 7.63746 -72.67794 14725 ft 344 kts 29°
2026-04-26 06:03 7.65816 -72.66641 14286 ft 342 kts 29°
2026-04-26 06:04 7.67891 -72.65489 13855 ft 340 kts 28°
2026-04-26 06:04 7.69952 -72.64347 13425 ft 338 kts 28°
2026-04-26 06:04 7.72000 -72.63211 12993 ft 335 kts 29°
2026-04-26 06:04 7.74037 -72.62078 12581 ft 332 kts 28°
2026-04-26 06:05 7.76058 -72.60954 12158 ft 330 kts 28°
2026-04-26 06:05 7.78069 -72.59838 11723 ft 328 kts 28°
2026-04-26 06:05 7.80037 -72.58750 11344 ft 325 kts 28°
2026-04-26 06:05 7.82010 -72.57657 11211 ft 314 kts 28°
2026-04-26 06:06 7.83872 -72.56623 11031 ft 306 kts 28°
2026-04-26 06:06 7.85724 -72.55592 10717 ft 303 kts 29°
2026-04-26 06:06 7.87556 -72.54571 10369 ft 301 kts 28°
2026-04-26 06:06 7.89393 -72.53552 10016 ft 300 kts 28°
2026-04-26 06:07 7.91210 -72.52545 9657 ft 298 kts 28°
2026-04-26 06:07 7.93080 -72.51662 9228 ft 297 kts 18°
2026-04-26 06:07 7.95142 -72.51254 8156 ft 308 kts
2026-04-26 06:07 7.97321 -72.51178 6902 ft 320 kts
2026-04-26 06:08 7.99573 -72.51111 5984 ft 322 kts
2026-04-26 06:08 8.01691 -72.51046 5822 ft 297 kts
2026-04-26 06:08 8.03679 -72.50981 5693 ft 275 kts
2026-04-26 06:08 8.05509 -72.50918 5567 ft 255 kts
2026-04-26 06:09 8.07254 -72.50856 5443 ft 246 kts
2026-04-26 06:09 8.08951 -72.50796 5318 ft 244 kts
2026-04-26 06:09 8.10648 -72.50735 5193 ft 243 kts
2026-04-26 06:09 8.12331 -72.50675 5068 ft 243 kts
2026-04-26 06:10 8.14023 -72.50614 4941 ft 242 kts
2026-04-26 06:10 8.15675 -72.50470 4821 ft 241 kts 17°
2026-04-26 06:10 8.17107 -72.49601 4684 ft 240 kts 49°
2026-04-26 06:10 8.17847 -72.48145 4565 ft 239 kts 80°
2026-04-26 06:11 8.17725 -72.46490 4459 ft 239 kts 112°
2026-04-26 06:11 8.16765 -72.45152 4401 ft 238 kts 143°
2026-04-26 06:11 8.15262 -72.44505 4404 ft 240 kts 174°
2026-04-26 06:11 8.13617 -72.44709 4410 ft 241 kts 197°
2026-04-26 06:12 8.12003 -72.45189 4404 ft 242 kts 197°
2026-04-26 06:12 8.10413 -72.45677 4323 ft 240 kts 198°
2026-04-26 06:12 8.08790 -72.46195 4094 ft 240 kts 197°
2026-04-26 06:12 8.07230 -72.46681 3804 ft 238 kts 197°
2026-04-26 06:13 8.05644 -72.47170 3493 ft 237 kts 197°
2026-04-26 06:13 8.04066 -72.47658 3181 ft 237 kts 197°
2026-04-26 06:13 8.02509 -72.48139 2896 ft 232 kts 198°
2026-04-26 06:13 8.00993 -72.48608 2557 ft 222 kts 197°
2026-04-26 06:14 7.99559 -72.49051 2267 ft 208 kts 197°
2026-04-26 06:14 7.98220 -72.49465 2002 ft 196 kts 197°
2026-04-26 06:14 7.96987 -72.49846 1764 ft 178 kts 197°
2026-04-26 06:14 7.95885 -72.50187 1543 ft 157 kts 197°
2026-04-26 06:15 7.94868 -72.50501 1336 ft 150 kts 197°
2026-04-26 06:15 7.93888 -72.50807 1147 ft 146 kts 197°
2026-04-26 06:15 7.92929 -72.51095 1033 ft 130 kts 197°
2026-04-26 06:15 7.92338 -72.51289 1049 ft 46 kts 197°
2026-04-26 06:16 7.92255 -72.51314 1052 ft 1 kts 197°
2026-04-26 06:16 7.92223 -72.51324 1052 ft 8 kts 191°
2026-04-26 06:16 7.92188 -72.51328 1053 ft 0 kts 228°
2026-04-26 06:16 7.92191 -72.51333 1053 ft 1 kts 290°
2026-04-26 06:17 7.92202 -72.51330 1053 ft 3 kts 12°
2026-04-26 06:17 7.92230 -72.51323 1052 ft 6 kts 15°
2026-04-26 06:17 7.92280 -72.51305 1051 ft 10 kts 19°
2026-04-26 06:17 7.92361 -72.51279 1047 ft 15 kts 18°
2026-04-26 06:18 7.92485 -72.51240 1039 ft 22 kts 16°
2026-04-26 06:18 7.92610 -72.51201 1033 ft 18 kts 18°
2026-04-26 06:18 7.92720 -72.51140 1032 ft 19 kts 65°
2026-04-26 06:18 7.92774 -72.51038 1031 ft 13 kts 78°
2026-04-26 06:19 7.92792 -72.50982 1032 ft 0 kts 64°
2026-04-26 06:19 7.92797 -72.50973 1032 ft 2 kts 64°
2026-04-26 06:19 7.92808 -72.50950 1032 ft 5 kts 64°
2026-04-26 06:19 7.92831 -72.50917 1032 ft 7 kts 45°
2026-04-26 06:20 7.92872 -72.50886 1032 ft 8 kts 55°
2026-04-26 06:20 7.92856 -72.50836 1032 ft 9 kts 114°
2026-04-26 06:20 7.92830 -72.50778 1032 ft 7 kts 117°
2026-04-26 06:20 7.92809 -72.50738 1032 ft 2 kts 117°
2026-04-26 06:21 7.92804 -72.50729 1032 ft 0 kts 117°
2026-04-26 06:21 7.92803 -72.50727 1032 ft 1 kts 117°
2026-04-26 06:21 7.92796 -72.50714 1032 ft 3 kts 122°
2026-04-26 06:22 7.92777 -72.50712 1032 ft 3 kts 181°
2026-04-26 06:22 7.92754 -72.50724 1032 ft 5 kts 205°
2026-04-26 06:22 7.92745 -72.50728 1032 ft 2 kts 206°
2026-04-26 06:22 7.92742 -72.50730 1032 ft 0 kts 206°